New Ulm, MN

2:53 PM CST on January 22, 2018 (GMT -0600)
New Ulm Municipal

Weather History for KULM - June, 2013

Change the Weather History Date:

Tuesday, June 18, 2013

  Actual Average Record
Temperature  
Mean Temperature 66 °F -  
Max Temperature 75 °F 80 °F 96 °F (1949)
Min Temperature 57 °F 58 °F 45 °F (1958)
Cooling Degree Days 1    
Growing Degree Days 16 (Base 50)    
Moisture  
Dew Point 58 °F    
Average Humidity 74    
Maximum Humidity 100    
Minimum Humidity 50    
Precipitation  
Precipitation 0.24 in - - ()
Sea Level Pressure  
Sea Level Pressure 30.04 in    
Wind  
Wind Speed 6 mph (ENE)    
Max Wind Speed 17 mph    
Max Gust Speed 23 mph    
Visibility 10 miles    
Events Rain , Thunderstorm    
Averages and records for this station are not official NWS values.
T = Trace of Precipitation, MM = Missing Value Source: NWS Daily Summary

Daily Weather History Graph

Daily Weather History Graph

Search for Another Location

Airport or City:

Trip Planner

Search our weather history database for the weather conditions in past years. The results will help you decide how hot, cold, wet, or windy it might be!

Date:

Astronomy

Jun. 18, 2013 Rise Set
Actual Time 5:33 AM CDT 9:05 PM CDT
Civil Twilight 4:56 AM CDT 9:41 PM CDT
Nautical Twilight 4:08 AM CDT 10:30 PM CDT
Astronomical Twilight 3:05 AM CDT 11:32 PM CDT
Moon 3:41 PM CDT (6/18) 1:52 AM CDT (6/18)
Length of Visible Light 16h 44m
Length of Day
15h 31m
Waxing Gibbous, 71% of the Moon is Illuminated
Jun 18
Waxing Gibbous
Jun 23
Full
Jun 29
Last Quarter
Jul 8
New
Jul 15
First Quarter

Hourly Weather History & Observations

Time (CDT) Temp. Dew Point Humidity Pressure Visibility Wind Dir Wind Speed Gust Speed Precip Events Conditions
12:12 AM 68.0 °F 57.2 °F 68% 29.99 in 10.0 mi ENE 4.6 mph - N/A   Mostly Cloudy
12:33 AM 66.2 °F 57.2 °F 73% 30.00 in 10.0 mi ENE 4.6 mph - N/A   Scattered Clouds
12:52 AM 66.2 °F 57.2 °F 73% 30.00 in 10.0 mi ENE 4.6 mph - N/A   Clear
1:13 AM 66.2 °F 57.2 °F 73% 30.00 in 10.0 mi East 5.8 mph - N/A   Clear
1:33 AM 66.2 °F 57.2 °F 73% 30.00 in 10.0 mi ENE 8.1 mph - N/A   Clear
1:52 AM 64.4 °F 57.2 °F 77% 30.00 in 10.0 mi ENE 6.9 mph - N/A   Clear
2:13 AM 64.4 °F 57.2 °F 77% 30.00 in 10.0 mi East 6.9 mph - N/A   Scattered Clouds
2:33 AM 64.4 °F 57.2 °F 77% 30.01 in 10.0 mi NE 6.9 mph - N/A Rain Light Rain
2:52 AM 62.6 °F 57.2 °F 82% 30.02 in 10.0 mi NE 9.2 mph - N/A Rain , Thunderstorm Thunderstorms and Rain
3:13 AM 60.8 °F 57.2 °F 88% 30.05 in 10.0 mi NNW 15.0 mph - 0.02 in Rain , Thunderstorm Thunderstorms and Rain
3:33 AM 59.0 °F 57.2 °F 94% 30.04 in 10.0 mi North 11.5 mph 23.0 mph 0.04 in Rain , Thunderstorm Thunderstorms and Rain
3:52 AM 59.0 °F 57.2 °F 94% 30.05 in 10.0 mi North 8.1 mph 16.1 mph 0.06 in Rain , Thunderstorm Rain
4:13 AM 59.0 °F 57.2 °F 94% 30.06 in 10.0 mi NNE 17.3 mph 21.9 mph 0.06 in Rain , Thunderstorm Heavy Thunderstorms and Rain
4:33 AM 57.2 °F 55.4 °F 94% 30.06 in 10.0 mi NE 10.4 mph 18.4 mph 0.13 in Rain , Thunderstorm Heavy Thunderstorms and Rain
4:53 AM 57.2 °F 55.4 °F 94% 30.06 in 10.0 mi ENE 6.9 mph - 0.16 in Rain , Thunderstorm Light Thunderstorms and Rain
5:13 AM 57.2 °F 57.2 °F 100% 30.04 in 10.0 mi ESE 3.5 mph - 0.01 in Rain Light Rain
5:33 AM 57.2 °F 57.2 °F 100% 30.04 in 10.0 mi Calm Calm - 0.01 in Rain Light Rain
5:53 AM 57.2 °F 57.2 °F 100% 30.05 in 10.0 mi East 6.9 mph - 0.01 in Rain Light Rain
6:12 AM 57.2 °F 57.2 °F 100% 30.05 in 10.0 mi East 6.9 mph - N/A Rain Light Rain
6:33 AM 59.0 °F 57.2 °F 94% 30.05 in 10.0 mi East 4.6 mph - 0.01 in Rain Light Rain
6:53 AM 59.0 °F 57.2 °F 94% 30.05 in 10.0 mi ENE 4.6 mph - 0.01 in   Clear
7:12 AM 59.0 °F 57.2 °F 94% 30.06 in 10.0 mi NE 8.1 mph - N/A   Clear
7:33 AM 59.0 °F 57.2 °F 94% 30.06 in 10.0 mi NE 5.8 mph - N/A   Clear
7:53 AM 60.8 °F 57.2 °F 88% 30.06 in 10.0 mi NNE 4.6 mph - N/A   Clear
8:13 AM 60.8 °F 57.2 °F 88% 30.07 in 10.0 mi NNE 8.1 mph - N/A   Clear
8:33 AM 60.8 °F 57.2 °F 88% 30.07 in 10.0 mi NE 9.2 mph - N/A   Clear
8:53 AM 60.8 °F 57.2 °F 88% 30.08 in 10.0 mi East 6.9 mph - N/A   Scattered Clouds
9:13 AM 62.6 °F 57.2 °F 82% 30.08 in 10.0 mi NE 9.2 mph - N/A   Scattered Clouds
9:33 AM 62.6 °F 57.2 °F 82% 30.09 in 10.0 mi Calm Calm - N/A   Clear
9:52 AM 62.6 °F 57.2 °F 82% 30.09 in 10.0 mi Calm Calm - N/A   Clear
10:13 AM 62.6 °F 57.2 °F 82% 30.09 in 10.0 mi Calm Calm - N/A   Clear
10:33 AM 64.4 °F 59.0 °F 83% 30.09 in 10.0 mi North 3.5 mph - N/A   Clear
10:52 AM 66.2 °F 59.0 °F 78% 30.09 in 10.0 mi North 6.9 mph - N/A   Scattered Clouds
11:13 AM 66.2 °F 59.0 °F 78% 30.09 in 10.0 mi NNE 6.9 mph - N/A   Clear
11:33 AM 66.2 °F 59.0 °F 78% 30.09 in 10.0 mi NE 6.9 mph - N/A   Clear
11:52 AM 66.2 °F 59.0 °F 78% 30.08 in 10.0 mi ENE 3.5 mph - N/A   Clear
12:13 PM 69.8 °F 60.8 °F 73% 30.08 in 10.0 mi NNE 6.9 mph - N/A   Clear
12:33 PM 69.8 °F 59.0 °F 68% 30.08 in 10.0 mi NNE 4.6 mph - N/A   Clear
12:52 PM 69.8 °F 59.0 °F 68% 30.07 in 10.0 mi NE 3.5 mph - N/A   Clear
1:13 PM 69.8 °F 59.0 °F 68% 30.07 in 10.0 mi ENE 6.9 mph - N/A   Scattered Clouds
1:33 PM 71.6 °F 60.8 °F 69% 30.07 in 10.0 mi ENE 8.1 mph - N/A   Clear
1:52 PM 71.6 °F 60.8 °F 69% 30.06 in 10.0 mi East 5.8 mph - N/A   Scattered Clouds
2:13 PM 71.6 °F 60.8 °F 69% 30.06 in 10.0 mi NE 6.9 mph - N/A   Clear
2:33 PM 71.6 °F 60.8 °F 69% 30.06 in 10.0 mi ENE 4.6 mph - N/A   Scattered Clouds
2:52 PM 73.4 °F 60.8 °F 65% 30.06 in 10.0 mi East 8.1 mph - N/A   Scattered Clouds
3:13 PM 71.6 °F 57.2 °F 60% 30.05 in 10.0 mi ENE 6.9 mph - N/A   Clear
3:33 PM 73.4 °F 57.2 °F 57% 30.04 in 10.0 mi East 6.9 mph - N/A   Clear
3:52 PM 73.4 °F 57.2 °F 57% 30.04 in 10.0 mi East 4.6 mph - N/A   Scattered Clouds
4:13 PM 73.4 °F 59.0 °F 61% 30.04 in 10.0 mi SE 3.5 mph - N/A   Clear
4:33 PM 73.4 °F 59.0 °F 61% 30.03 in 10.0 mi SE 8.1 mph - N/A   Clear
4:52 PM 73.4 °F 57.2 °F 57% 30.02 in 10.0 mi East 8.1 mph - N/A   Clear
5:13 PM 73.4 °F 57.2 °F 57% 30.02 in 10.0 mi ESE 8.1 mph - N/A   Clear
5:33 PM 73.4 °F 57.2 °F 57% 30.02 in 10.0 mi East 9.2 mph - N/A   Clear
5:53 PM 75.2 °F 57.2 °F 53% 30.02 in 10.0 mi SE 4.6 mph - N/A   Scattered Clouds
6:13 PM 75.2 °F 57.2 °F 53% 30.02 in 10.0 mi South 3.5 mph - N/A   Scattered Clouds
6:33 PM 75.2 °F 57.2 °F 53% 30.02 in 10.0 mi Calm Calm - N/A   Scattered Clouds
6:53 PM 75.2 °F 55.4 °F 50% 30.02 in 10.0 mi Calm Calm - N/A   Clear
7:13 PM 75.2 °F 55.4 °F 50% 30.02 in 10.0 mi SSE 3.5 mph - N/A   Clear
7:32 PM 73.4 °F 55.4 °F 53% 30.01 in 10.0 mi ESE 3.5 mph - N/A   Clear
7:53 PM 73.4 °F 55.4 °F 53% 30.01 in 10.0 mi Calm Calm - N/A   Clear
8:13 PM 73.4 °F 55.4 °F 53% 30.01 in 10.0 mi Calm Calm - N/A   Clear
8:32 PM 73.4 °F 57.2 °F 57% 30.01 in 10.0 mi Calm Calm - N/A   Clear
8:53 PM 73.4 °F 60.8 °F 65% 30.01 in 10.0 mi Calm Calm - N/A   Scattered Clouds
9:13 PM 73.4 °F 57.2 °F 57% 30.01 in 10.0 mi Calm Calm - N/A   Scattered Clouds
9:32 PM 71.6 °F 57.2 °F 60% 30.01 in 10.0 mi Calm Calm - N/A   Clear
9:53 PM 71.6 °F 57.2 °F 60% 30.02 in 10.0 mi Calm Calm - N/A   Clear
10:13 PM 71.6 °F 59.0 °F 64% 30.03 in 10.0 mi Calm Calm - N/A   Clear
10:32 PM 71.6 °F 57.2 °F 60% 30.03 in 10.0 mi East 3.5 mph - N/A   Clear
10:53 PM 69.8 °F 60.8 °F 73% 30.03 in 10.0 mi East 5.8 mph - N/A   Clear
11:13 PM 69.8 °F 60.8 °F 73% 30.03 in 10.0 mi East 4.6 mph - N/A   Clear
11:32 PM 68.0 °F 60.8 °F 78% 30.02 in 10.0 mi East 4.6 mph - N/A   Clear
11:53 PM 64.4 °F 60.8 °F 88% 30.02 in 10.0 mi ESE 4.6 mph - N/A   Clear